IRIDIUM 31 [-]

Last updated on Dec. 21, 2018, 2:58 a.m. UTC

1 24950U 97051G   18354.73646444  .14642407 -12123-5  16811-3 0  9994
2 24950  86.3863  55.0296 0067455 285.0766  74.3085 16.41412243113880

Satellite is not in orbit.